Wind_Speed
8 8 7 7 7 7 7 6 6 6 5 5 5 5 4 4 4 4 4 4 4 4 4 4 4 5 5 6 7 8 10 11 13 15 15 10 6 3 4 5 3 1 3 2 1 1 1 3 3 2 0 0 1 0 2 2 3 1 2 3 1 3 3 4 6 3 1 4 6 9 8 4 5 6 7 9 11 15 17 24 23 19 22 23 23 22 21 21
8 8 8 8 8 8 7 7 7 6 6 6 6 5 5 5 5 5 5 5 5 5 5 5 5 5 6 7 8 10 11 12 15 13 6 1 5 8 8 4 2 5 5 3 2 2 3 5 3 1 0 1 1 1 2 3 5 3 3 2 3 5 5 5 5 5 2 5 8 10 9 5 7 8 9 8 12 15 13 25 27 20 23 22 20 18 18 19
9 9 9 9 9 8 8 8 7 7 7 6 6 6 6 6 6 6 6 6 6 6 6 6 7 7 8 8 9 11 12 15 14 2 7 9 10 8 5 5 6 7 7 4 4 2 6 6 3 1 2 2 2 3 3 4 5 4 3 1 6 7 6 8 11 12 9 8 8 11 13 11 13 12 8 6 12 14 11 21 22 19 24 25 22 19 18 20
10 10 10 10 10 9 9 9 8 8 8 7 7 7 7 7 7 7 7 8 8 8 8 8 8 9 9 9 11 11 13 15 7 7 9 7 4 2 8 10 10 8 7 5 4 4 8 7 3 2 4 3 3 4 4 6 6 3 5 5 6 5 4 11 14 15 13 10 11 15 14 14 16 11 8 8 8 9 16 24 21 21 28 29 27 24 22 22
12 11 11 11 11 10 10 10 10 9 9 9 9 9 9 9 9 9 9 9 10 10 10 10 10 10 11 11 12 12 11 8 2 8 6 6 4 7 11 12 10 8 6 4 4 5 7 7 4 4 5 4 3 3 4 9 8 3 6 10 9 5 3 12 15 13 14 15 16 15 9 10 12 10 11 9 5 10 23 29 27 28 30 28 27 24 24 23
13 13 12 12 12 11 11 11 11 10 10 10 10 10 10 10 10 10 11 11 11 11 11 11 12 12 13 13 13 12 7 2 4 5 6 7 8 11 12 10 8 6 4 4 5 6 7 8 7 6 5 3 3 5 5 8 9 5 5 9 14 13 9 15 16 13 15 16 16 12 10 13 11 11 15 13 15 23 29 29 28 29 27 25 23 21 21 21
14 13 13 13 12 12 12 11 11 11 11 11 11 11 11 11 11 11 12 11 12 12 13 13 14 14 14 14 13 11 9 9 10 9 10 12 13 13 9 7 5 4 3 4 6 7 8 9 9 8 4 1 3 6 7 6 8 7 6 7 12 14 13 16 16 16 18 18 20 18 17 18 12 11 14 19 29 32 28 24 24 26 25 23 22 20 19 19
14 14 14 13 13 13 12 12 12 11 11 11 11 11 11 12 12 12 12 13 13 13 14 15 14 14 13 13 12 10 12 13 10 8 11 12 12 9 7 7 4 4 4 4 7 8 9 9 10 7 3 3 4 5 5 5 5 7 6 6 8 9 10 15 16 20 23 23 25 20 19 23 18 13 14 26 34 26 20 20 20 22 24 23 21 19 19 19
15 15 15 14 14 13 13 12 12 12 12 12 12 12 12 13 13 13 13 14 14 14 15 14 14 14 12 12 10 8 11 10 6 5 7 8 8 7 8 8 6 6 6 6 8 10 11 9 9 8 5 5 5 4 2 1 3 5 5 4 6 9 13 16 18 24 24 24 23 14 17 27 21 10 12 24 23 14 15 18 19 22 22 17 16 17 18 20
16 16 16 15 14 14 13 13 13 13 13 13 13 13 13 14 14 14 14 14 14 14 14 13 13 12 11 12 7 4 8 7 5 6 5 6 7 7 9 8 8 8 8 9 9 12 12 9 7 6 6 5 4 4 2 2 3 4 5 8 10 12 16 17 19 28 25 22 20 10 14 24 15 2 7 18 12 11 18 19 20 21 17 14 15 16 17 18
17 16 15 15 14 14 13 13 13 13 13 13 13 14 14 14 14 14 14 13 13 12 12 12 12 11 11 11 9 8 10 10 9 10 9 8 8 9 10 9 10 11 11 11 11 12 13 12 8 5 4 3 3 4 4 4 4 6 8 10 13 13 17 20 19 24 18 12 13 8 9 16 7 2 11 18 12 13 20 21 22 20 16 15 15 15 16 17
16 15 15 14 14 13 13 13 13 13 13 13 14 14 14 14 13 13 13 12 12 11 11 10 10 10 10 11 14 14 13 13 12 12 12 11 11 11 12 12 13 13 12 11 12 13 14 13 10 7 5 3 1 2 3 3 6 8 7 6 10 9 12 19 16 14 8 4 7 3 4 10 2 8 18 18 14 17 21 23 24 21 17 16 15 14 14 14
15 14 14 14 13 13 13 13 13 13 13 14 14 13 13 12 12 11 11 10 10 9 9 9 9 9 9 11 14 13 12 12 12 11 11 12 13 14 14 14 13 11 10 10 12 12 13 12 10 9 7 5 2 2 4 6 7 8 5 1 6 7 6 13 7 4 4 5 6 5 1 8 5 13 18 15 16 18 21 24 25 21 18 17 14 11 9 8
14 14 14 14 14 14 14 13 13 13 13 13 13 12 11 10 10 10 9 9 9 8 8 8 8 8 9 11 12 12 12 12 12 11 11 12 14 15 14 13 10 9 9 10 11 11 11 9 8 8 7 7 5 4 5 7 5 4 2 1 3 2 5 10 6 2 3 6 6 8 3 7 8 15 16 14 17 18 21 25 23 21 19 15 9 6 3 1
15 14 14 14 14 14 14 13 13 12 12 12 11 10 10 9 9 8 8 8 8 8 8 8 8 8 9 11 12 11 10 9 9 8 8 9 12 12 11 9 7 7 8 10 11 11 10 8 7 6 5 7 5 3 4 5 3 2 1 3 3 2 4 11 11 3 3 5 5 8 2 6 8 14 18 19 22 22 21 22 22 20 15 8 3 2 2 5
15 15 15 15 14 13 13 12 11 11 10 10 9 9 8 8 8 8 8 9 8 9 8 7 8 7 6 9 10 8 7 6 5 5 7 8 10 9 6 4 5 6 8 10 10 11 10 8 5 5 5 5 1 3 4 4 4 3 1 3 3 3 3 6 9 3 2 2 2 4 2 4 6 11 21 27 29 27 21 20 20 14 8 5 3 5 7 8
16 15 15 14 13 13 12 11 10 10 9 9 8 8 7 7 8 8 9 9 9 9 8 7 7 7 7 10 9 8 6 4 3 5 6 6 7 6 4 4 5 5 7 9 9 8 7 6 4 4 3 1 3 5 3 2 4 3 1 3 4 4 3 3 7 6 3 3 1 2 2 6 8 13 25 31 30 25 18 17 14 6 6 6 8 9 9 8
16 15 14 13 13 12 11 10 10 9 9 8 7 7 7 7 8 9 9 10 8 6 6 7 6 3 7 12 10 7 5 5 5 5 6 6 5 4 5 5 4 6 6 6 6 6 5 4 3 1 2 1 3 5 2 5 5 4 4 3 4 3 4 5 5 5 4 3 2 4 5 8 9 12 22 30 27 20 16 14 7 6 9 10 12 13 11 11
15 14 13 13 13 12 11 10 9 9 8 7 6 6 7 7 8 9 10 10 8 4 3 7 9 3 3 7 8 7 7 8 8 8 10 9 8 8 8 6 6 7 5 3 3 7 7 3 4 1 2 3 5 7 9 10 7 7 6 4 4 4 5 7 6 6 4 3 4 7 7 7 8 9 16 27 26 17 16 10 6 12 15 16 16 16 15 15
15 14 14 13 13 12 11 10 9 9 8 7 6 6 6 6 4 5 9 11 13 10 7 8 10 12 11 9 9 9 10 11 10 11 12 11 11 9 8 6 6 6 4 4 3 5 8 4 2 5 7 9 10 12 11 8 4 4 4 3 5 5 7 7 6 7 2 0 6 6 5 6 8 8 15 25 20 14 15 6 14 16 18 18 18 19 18 18
15 15 14 14 13 12 11 10 9 9 8 7 7 6 6 6 3 3 5 9 13 15 15 14 15 19 20 19 18 15 13 10 10 12 12 12 11 8 8 7 5 2 3 4 3 2 6 5 6 10 12 11 10 9 8 5 4 4 4 4 6 6 7 7 6 7 0 1 5 2 3 7 9 10 15 18 12 11 11 8 17 18 19 18 19 20 20 20
16 16 15 14 14 12 11 10 9 8 8 7 6 6 6 6 5 4 4 7 12 15 17 18 20 23 24 24 24 22 16 11 11 13 12 12 13 9 8 7 4 3 3 4 4 2 3 3 9 15 13 7 5 4 6 6 5 5 3 3 5 4 4 7 6 5 2 1 5 4 4 7 10 10 10 12 11 12 14 17 18 19 20 18 18 20 21 22
17 17 16 15 13 12 12 10 9 8 7 6 6 6 6 4 4 3 4 5 10 14 17 19 23 25 25 24 24 21 17 13 12 13 12 13 14 13 10 8 5 4 4 4 5 4 3 6 15 18 10 4 6 5 5 5 3 4 4 3 5 3 1 4 5 5 3 1 2 3 4 6 8 7 6 14 14 18 22 23 21 21 21 18 18 20 22 23
18 18 16 15 13 13 12 10 10 8 7 7 6 6 5 4 2 2 3 3 5 10 14 18 18 17 18 17 16 15 16 14 11 11 14 16 15 12 10 10 7 4 5 8 9 7 6 9 12 9 6 7 7 7 5 4 2 4 6 6 6 5 5 6 4 4 4 4 2 3 5 4 6 5 3 8 11 16 18 21 22 20 19 19 20 22 23 25
19 19 17 15 13 12 11 11 10 9 9 9 8 7 5 3 1 3 3 1 3 6 9 10 8 8 10 10 9 10 11 11 10 9 13 18 16 9 6 9 8 4 7 8 7 6 8 12 7 2 4 7 6 7 5 5 2 5 5 9 10 8 7 5 2 4 4 4 3 4 4 4 5 4 3 4 5 9 12 15 17 15 16 18 20 22 24 26
20 19 18 16 14 12 12 11 10 11 11 10 9 7 5 3 3 3 3 2 3 4 4 4 4 4 5 6 9 10 5 5 9 11 13 16 17 10 3 5 5 4 7 5 3 3 6 11 7 5 5 6 6 7 5 7 4 4 5 8 9 6 4 3 3 3 0 3 3 3 0 5 5 5 3 5 4 6 8 10 11 13 15 16 19 20 22 25
20 20 19 18 15 13 13 10 12 13 12 11 10 8 5 4 4 3 3 3 3 3 4 3 4 3 3 5 10 10 2 3 7 9 13 14 14 11 5 2 2 3 4 4 1 3 3 3 4 7 6 5 5 6 5 8 6 3 5 4 6 6 5 4 5 2 3 3 4 2 2 3 4 5 4 5 7 5 5 6 7 11 13 15 17 19 21 23
21 21 20 18 15 14 13 11 13 15 13 11 11 8 6 5 5 4 4 1 3 2 4 2 3 4 4 7 10 7 2 5 5 5 12 13 10 8 5 4 4 3 2 4 3 5 1 2 4 8 6 5 6 5 7 10 5 6 5 6 6 5 5 4 5 2 1 1 5 4 1 2 5 5 5 2 5 3 4 4 4 8 12 13 15 17 20 22
23 22 20 19 17 16 15 14 15 16 14 12 11 8 7 7 5 4 3 1 1 1 2 2 3 4 5 6 6 3 2 3 1 5 10 9 9 6 2 4 5 3 3 2 4 6 1 2 4 7 5 6 6 3 5 9 4 5 5 5 4 5 5 4 5 3 2 1 5 6 4 2 5 5 3 1 2 4 4 3 4 8 11 13 15 17 19 20
23 22 21 21 21 21 20 19 17 16 14 13 11 9 8 7 5 3 2 3 0 1 3 3 3 4 5 5 1 1 2 1 2 6 6 4 7 5 1 1 2 2 2 3 2 6 4 1 1 3 4 5 5 2 1 4 4 5 6 5 6 5 4 3 2 4 2 3 6 8 8 5 3 5 3 2 2 6 8 5 5 7 11 13 15 17 19 20
25 25 25 25 24 23 21 20 18 17 15 13 11 10 8 4 3 3 5 1 1 1 3 2 2 4 6 4 2 2 1 1 3 6 3 2 3 2 2 1 1 2 3 4 3 5 5 2 2 3 4 4 6 4 3 3 3 6 5 4 3 4 4 4 4 3 1 5 6 5 5 5 4 5 2 3 4 4 9 8 8 9 11 14 15 17 18 19
29 28 26 23 20 18 18 17 17 16 16 13 12 10 6 1 1 3 3 1 1 2 3 2 2 3 4 3 2 4 2 2 3 4 3 3 3 3 2 3 3 2 3 3 3 4 3 5 4 2 2 5 5 3 2 5 5 5 4 5 3 3 3 3 3 0 3 6 4 3 5 2 5 4 3 5 7 3 9 12 13 14 15 16 16 17 18 18
22 20 19 18 18 16 15 14 14 15 14 13 12 8 4 1 3 3 3 1 1 1 1 2 2 3 5 3 2 4 2 2 4 4 2 3 3 3 4 3 5 1 2 3 1 2 3 5 3 0 3 5 7 5 2 1 1 4 5 4 3 2 0 3 4 2 4 5 3 3 3 2 4 2 4 5 6 4 14 19 19 20 19 18 17 17 17 16
17 15 14 14 14 14 15 13 13 14 13 13 10 4 3 3 3 2 4 4 1 1 0 2 2 3 4 2 3 4 2 2 4 4 2 3 2 2 4 4 5 3 1 2 1 2 2 5 3 4 2 4 7 5 5 5 4 4 4 5 4 4 4 4 4 3 4 5 4 2 1 2 3 1 3 3 5 10 18 20 20 20 19 18 17 16 15 14
17 16 14 13 12 12 12 12 12 11 11 11 6 2 4 4 1 2 3 3 1 0 0 2 4 2 0 2 3 3 4 3 2 4 3 3 3 3 3 4 6 5 3 2 2 2 3 5 5 3 1 3 5 3 5 6 2 2 3 4 2 4 5 3 3 5 3 3 4 2 2 2 3 0 2 5 8 10 13 16 17 17 16 16 16 14 13 12
17 15 13 12 11 11 11 11 11 10 11 9 3 2 4 2 2 3 2 2 2 2 1 1 3 2 2 3 3 3 3 2 2 3 2 2 3 4 4 4 5 8 6 4 3 2 2 5 5 3 2 2 2 1 3 3 2 2 3 3 4 4 6 2 3 0 2 2 4 2 2 2 1 1 2 5 6 6 7 10 13 14 14 14 14 13 12 10
15 14 13 13 13 13 14 13 11 11 11 7 3 4 3 2 5 5 1 0 1 2 3 1 1 3 3 2 3 4 2 1 1 3 2 2 2 4 5 2 3 7 8 4 3 3 3 4 5 0 1 1 2 2 3 3 3 4 3 4 3 1 3 3 1 3 2 3 4 1 3 3 2 2 0 4 4 4 4 6 9 11 12 13 13 12 10 8
14 13 13 14 14 14 15 14 12 12 10 5 4 5 3 3 7 7 5 2 1 3 2 3 3 4 4 4 4 3 3 3 2 3 2 2 3 3 4 2 0 2 4 5 2 1 2 2 6 0 2 2 3 2 2 4 3 4 3 2 2 1 1 1 1 2 2 4 4 4 5 4 4 4 4 6 9 9 7 6 6 9 13 14 12 10 8 6
11 10 9 13 15 16 17 16 15 14 9 5 5 5 3 4 8 14 15 8 1 1 1 3 4 2 3 5 4 3 4 4 4 3 2 2 3 2 3 3 1 1 1 7 5 1 2 1 4 2 1 2 3 2 2 2 2 3 1 2 2 2 3 2 2 3 3 4 4 6 6 4 4 5 8 11 12 11 9 6 6 11 14 13 10 7 5 4
11 7 6 10 13 16 19 17 16 14 7 4 5 4 3 3 7 16 20 13 4 4 4 3 4 4 3 4 3 3 3 4 5 4 2 3 3 2 1 2 3 2 1 4 3 1 2 1 3 4 3 0 1 2 5 5 3 2 1 1 1 0 1 1 1 2 3 3 4 6 7 5 3 2 7 10 9 10 10 8 8 13 15 11 7 6 4 4
11 4 4 9 12 17 22 16 10 8 4 3 3 3 3 4 4 9 17 18 12 8 6 4 5 6 5 4 4 3 3 3 4 4 3 3 3 2 1 2 3 3 2 3 2 1 1 2 2 2 1 2 4 4 5 7 6 5 3 3 3 3 2 1 4 1 2 3 3 4 7 5 2 2 4 6 8 10 13 13 11 14 15 10 7 7 7 6
11 4 5 10 13 20 23 12 4 5 3 4 5 5 6 6 4 5 10 14 12 8 6 4 4 5 5 4 4 4 3 3 4 4 3 4 4 3 2 2 2 2 3 2 2 2 3 3 1 3 3 5 5 3 2 4 4 4 2 2 3 3 4 3 6 3 1 3 2 2 5 3 1 3 1 8 13 17 20 17 13 13 13 12 11 10 10 9
12 6 7 13 18 24 20 6 3 5 4 4 4 6 8 5 4 5 6 7 7 6 5 3 3 5 5 3 4 4 4 3 4 5 3 3 3 2 1 2 1 1 3 2 1 1 3 3 1 3 3 2 4 4 3 3 3 2 2 1 3 3 3 4 4 2 1 3 2 2 4 2 1 3 3 10 16 19 19 16 12 10 12 14 15 14 13 12
12 9 10 15 23 27 16 4 5 7 6 3 1 4 8 6 5 6 6 6 7 4 3 3 4 5 5 2 3 4 5 4 4 3 3 3 2 0 1 1 3 2 2 2 3 3 2 1 2 0 4 4 4 4 4 4 1 2 2 1 2 3 4 3 0 1 1 4 5 4 5 3 2 1 4 5 10 11 13 14 11 10 11 13 16 16 14 13
11 8 8 16 27 27 14 4 3 5 7 6 4 4 5 4 6 9 8 8 9 7 4 3 4 5 4 2 2 3 4 4 3 2 1 1 0 1 3 1 3 3 2 2 5 7 4 2 3 3 5 7 5 3 3 2 1 1 1 2 2 3 5 3 1 1 2 3 4 5 5 2 1 1 1 1 5 7 10 11 10 11 11 12 15 17 15 13
8 4 4 11 22 25 18 9 3 1 4 6 5 5 7 5 4 10 11 8 9 8 4 3 3 4 3 3 3 4 4 3 2 1 2 2 2 2 4 3 2 5 5 4 6 5 3 1 3 6 8 8 5 5 4 2 2 2 3 3 4 4 4 4 3 3 2 1 3 6 6 4 5 5 5 5 5 5 7 9 10 11 12 14 17 17 15 12
6 3 6 8 11 16 15 13 10 4 2 6 4 2 8 9 4 6 10 9 9 10 5 2 4 5 4 4 4 4 4 3 2 2 2 3 1 2 3 4 3 4 5 4 3 4 4 1 4 5 7 6 3 4 3 2 3 5 5 7 9 7 4 6 4 4 3 2 7 9 6 5 9 11 7 6 5 5 7 12 15 15 15 16 18 17 14 11
5 3 11 14 7 6 9 12 16 12 5 5 4 0 3 8 6 6 8 7 8 11 7 3 5 7 6 6 5 4 4 3 3 3 2 2 2 1 2 3 2 1 1 2 2 4 4 3 3 3 4 4 3 3 3 3 3 5 6 9 12 9 5 6 6 7 7 7 10 7 3 6 10 10 5 5 7 9 12 15 16 12 11 16 18 16 14 12
7 2 9 15 6 4 11 13 14 15 11 6 4 3 3 6 7 6 4 3 4 8 9 6 6 7 8 8 7 5 5 5 4 3 3 2 2 3 1 1 1 1 1 2 2 2 3 1 1 2 2 3 1 1 3 3 3 4 7 11 12 8 5 7 9 10 8 8 10 8 6 9 11 8 7 10 11 11 11 10 9 11 15 18 17 15 14 12
8 3 6 10 4 2 9 12 11 11 10 8 7 6 5 6 7 4 2 4 4 3 7 9 7 7 7 8 9 8 7 7 6 5 6 5 3 3 3 2 3 2 1 1 0 1 1 1 1 3 1 5 3 2 3 3 3 5 10 12 9 6 7 9 10 8 6 8 10 8 8 12 12 8 7 10 10 6 7 9 13 15 17 18 16 14 12 10
9 6 5 6 4 3 7 9 8 7 6 8 9 7 6 8 8 4 1 3 5 3 4 8 7 4 3 5 9 9 9 9 7 6 7 6 5 4 3 4 6 5 2 2 1 0 1 1 1 5 1 5 4 1 2 3 3 7 14 15 12 9 9 9 8 7 8 9 8 6 6 9 10 7 5 5 7 9 12 14 15 16 16 15 14 12 10 9
11 8 6 4 3 5 6 5 6 6 5 7 10 9 8 8 7 7 4 2 4 4 2 5 7 4 2 5 7 8 8 8 7 6 6 5 5 6 5 5 7 6 4 3 1 0 3 4 2 3 2 4 3 3 1 5 5 8 11 11 12 12 10 8 8 9 9 7 5 6 8 8 7 6 4 5 7 10 13 16 17 15 13 11 11 10 9 9
Wind_Direction
215 214 215 217 217 218 217 216 216 213 211 211 207 206 208 208 211 218 221 227 232 243 257 267 281 292 299 307 313 315 318 317 318 316 310 303 282 239 153 146 127 8 340 347 345 326 226 179 189 221 251 61 38 210 181 196 187 145 90 107 219 203 203 195 188 202 189 259 290 313 299 249 280 294 301 303 284 290 297 290 285 275 274 274 279 288 293 297
220 219 221 221 222 221 220 221 220 220 219 218 216 218 220 218 224 229 234 243 246 255 264 269 283 289 296 306 309 315 318 317 320 320 319 46 121 120 117 108 348 322 325 317 296 289 176 155 149 144 97 74 32 208 186 198 187 168 113 134 226 203 212 219 222 253 265 272 285 304 303 271 277 297 309 302 290 303 303 295 295 289 287 289 287 287 292 296
223 223 224 224 225 225 224 226 224 226 226 225 226 226 229 230 235 239 245 252 255 262 267 272 280 283 293 299 304 313 317 318 321 345 115 114 117 107 69 9 336 320 312 295 287 235 176 168 140 151 228 218 226 216 196 196 197 202 150 166 244 217 236 266 268 275 281 288 290 302 305 293 292 298 294 283 300 307 289 289 294 293 300 307 306 299 293 294
225 225 227 226 226 226 225 226 225 227 227 229 231 231 235 237 240 246 250 253 258 262 264 269 274 279 287 292 302 309 317 322 313 148 136 137 141 356 353 345 332 321 302 284 270 212 192 186 156 191 216 223 225 220 217 208 203 198 165 189 236 208 235 268 273 282 288 299 299 300 304 297 297 295 277 283 310 302 285 290 291 292 304 311 313 309 300 294
227 227 228 229 229 228 227 227 227 229 229 232 234 236 240 241 245 248 251 254 257 260 263 267 273 278 285 291 299 303 321 339 171 161 176 195 224 303 320 323 321 317 295 264 235 212 204 189 173 189 204 227 195 184 239 218 198 189 211 225 241 214 219 269 274 281 290 300 300 299 298 292 298 292 278 275 253 267 287 298 300 299 306 311 313 311 304 296
230 230 229 231 232 231 231 231 232 234 235 238 239 242 245 247 251 253 255 258 260 264 268 271 276 281 287 291 296 299 308 302 207 204 224 231 257 283 295 305 311 306 278 233 222 215 206 193 192 194 191 233 196 191 245 226 203 221 255 240 249 248 245 268 273 279 291 298 292 288 287 291 298 294 289 271 256 274 289 300 304 304 308 311 311 309 306 302
233 233 233 234 234 235 236 236 238 239 242 245 247 250 252 255 257 258 260 263 266 271 274 277 281 284 289 290 294 294 271 267 276 262 252 256 268 276 280 289 296 286 262 225 221 215 210 198 201 202 176 230 225 218 253 256 211 214 262 257 258 261 257 267 273 279 287 288 283 288 290 285 284 289 295 281 275 283 293 299 304 310 314 314 311 310 310 309
236 236 236 237 238 239 240 241 244 246 249 252 255 257 259 262 263 264 267 270 273 277 279 282 284 286 290 290 291 286 271 282 296 267 255 257 261 266 265 270 266 272 283 244 224 216 213 202 204 209 182 212 227 227 261 289 226 200 238 263 266 275 278 283 288 286 286 286 287 293 287 279 280 284 281 278 281 289 295 298 306 314 316 316 318 319 316 312
238 238 238 239 241 242 244 246 248 250 254 256 259 261 264 266 268 270 272 275 278 280 283 284 286 287 287 284 283 282 281 295 308 272 255 244 246 252 256 260 251 266 283 258 233 217 214 210 213 216 215 226 228 241 250 287 249 210 222 266 284 291 298 300 296 289 287 286 287 289 283 282 288 293 272 273 282 299 301 300 310 315 315 321 332 335 332 324
239 239 239 240 241 243 246 247 250 252 255 258 261 264 267 270 272 275 277 279 281 281 282 282 284 283 280 277 261 255 286 296 297 287 276 255 251 250 253 254 253 266 276 268 246 225 219 215 215 216 229 237 220 243 227 185 259 278 295 307 304 305 305 301 290 286 288 288 283 262 267 281 288 318 264 273 291 305 299 304 312 314 313 322 335 340 341 334
241 241 242 243 243 245 247 249 252 254 258 262 265 268 271 274 276 277 277 278 277 277 278 277 280 277 275 270 235 234 281 289 286 288 283 274 260 248 251 251 257 270 274 267 249 234 226 218 216 212 225 237 225 255 255 246 288 313 330 322 307 317 310 294 283 284 287 292 281 235 251 283 289 172 250 272 299 301 296 304 309 309 308 321 338 342 341 336
244 245 246 248 248 249 251 254 258 261 265 268 269 271 272 273 273 273 273 272 273 273 273 275 277 275 275 267 250 258 282 283 281 281 275 270 260 252 254 255 263 273 271 257 243 237 227 222 225 224 234 231 237 312 277 297 328 318 337 331 304 337 316 288 281 280 274 268 276 201 278 299 251 215 254 276 294 291 291 298 305 306 307 329 346 343 337 332
247 249 251 253 255 257 259 262 266 268 268 268 268 268 267 267 266 267 267 267 269 270 272 275 277 279 274 265 266 273 279 276 274 270 266 263 261 262 264 268 272 270 259 243 239 235 225 227 229 233 249 245 244 296 286 317 328 309 330 340 302 351 315 283 285 286 281 267 247 155 267 290 257 250 266 290 294 288 290 295 304 306 315 337 347 344 336 315
248 250 252 255 257 261 263 265 266 265 264 263 262 261 261 261 261 263 265 267 269 269 273 275 277 280 267 263 276 278 273 274 272 266 264 262 262 267 272 277 275 258 242 235 235 232 227 231 236 242 252 252 265 290 308 330 329 302 325 10 317 324 277 290 306 298 312 292 217 164 210 267 271 280 286 305 303 296 293 296 305 311 325 344 353 356 344 282
246 248 250 253 255 257 260 260 259 258 257 256 255 255 255 255 258 261 264 268 271 273 275 274 276 275 264 269 276 274 272 272 271 270 265 263 265 269 275 277 265 243 229 228 230 232 231 228 236 246 252 260 277 323 345 345 344 10 311 305 323 207 263 304 304 253 232 283 176 156 230 269 269 285 298 308 304 298 295 300 311 321 341 12 29 37 133 123
242 244 245 248 250 251 252 251 250 249 248 248 249 248 249 253 258 263 269 273 275 275 275 274 268 258 264 277 270 260 265 271 275 273 261 260 265 270 275 259 232 223 223 227 231 233 237 237 238 244 248 258 210 81 37 358 330 352 188 252 273 230 265 315 307 297 189 223 151 163 231 275 276 289 301 302 296 296 300 307 316 333 17 77 124 130 128 116
238 239 241 242 242 242 239 238 237 237 238 240 243 247 252 259 266 271 274 275 274 273 271 263 257 257 258 260 258 248 247 265 281 261 249 252 261 265 244 206 194 207 218 225 231 229 231 223 199 226 249 235 111 99 54 322 290 311 255 231 245 236 239 286 298 319 33 92 229 279 239 252 274 289 293 292 292 298 307 316 328 16 88 118 123 118 109 101
233 234 234 233 230 228 225 224 223 225 230 232 240 251 258 264 270 271 271 269 265 267 270 243 221 261 261 245 245 236 223 264 276 241 228 229 235 225 204 211 217 213 209 212 221 200 193 187 150 204 338 73 120 119 162 232 226 249 258 247 266 264 248 254 266 294 351 14 290 293 282 265 274 284 284 287 294 303 314 328 356 106 121 118 111 102 93 90
226 226 223 221 218 214 212 211 212 217 223 228 236 248 258 264 266 262 258 252 234 219 252 221 194 197 248 226 225 229 246 275 267 232 228 224 218 215 208 220 214 193 182 175 200 182 164 116 90 154 256 199 192 179 201 219 208 226 240 228 254 266 261 254 252 265 286 324 280 267 276 273 279 284 280 287 298 313 326 347 89 120 113 108 101 94 89 84
217 217 214 210 207 204 202 203 207 211 217 224 227 235 247 246 250 254 244 237 230 227 236 228 223 238 250 251 253 263 272 273 254 234 232 224 216 213 203 197 177 172 179 162 186 191 163 143 160 205 220 212 210 208 213 226 218 234 247 246 252 251 266 262 259 270 247 220 268 255 270 277 281 282 279 292 310 334 334 30 110 112 103 99 94 90 86 83
209 208 206 203 200 198 198 201 204 209 215 221 220 226 235 219 204 253 249 247 245 242 246 249 249 251 256 261 265 270 271 267 255 240 231 220 209 202 193 175 145 170 223 158 131 143 159 180 220 221 222 219 220 214 214 239 242 237 239 257 268 250 260 261 257 278 286 161 265 297 334 290 285 280 289 311 343 357 348 89 111 102 96 92 89 88 86 87
203 203 202 200 198 196 199 202 204 208 213 217 218 222 229 223 224 252 274 271 261 255 254 255 253 253 253 255 258 260 259 258 255 241 227 210 198 197 187 160 152 202 190 136 103 105 174 214 236 233 227 226 250 211 188 219 220 218 217 227 257 250 279 284 275 298 5 209 269 344 341 286 284 281 319 8 46 40 47 93 103 97 94 86 86 87 89 91
200 200 200 199 198 200 201 201 201 203 204 207 212 214 213 212 218 257 287 277 273 267 257 252 250 251 252 253 255 253 243 238 246 242 225 203 194 196 184 162 177 190 160 169 166 163 192 229 237 237 221 199 254 238 190 217 215 209 211 217 252 250 283 278 283 309 331 310 281 331 316 283 280 276 24 46 67 64 67 86 87 88 92 88 91 91 91 92
199 198 199 198 199 204 202 199 198 197 198 194 197 203 194 189 199 307 304 266 280 273 258 253 250 250 253 252 251 242 231 229 237 234 219 204 191 190 193 184 177 179 194 197 190 191 219 234 235 232 190 175 230 255 227 217 240 242 222 219 244 242 216 229 280 321 335 358 20 11 334 297 278 266 75 60 67 67 66 76 76 80 88 91 95 93 93 93
199 197 197 195 199 206 204 200 198 196 197 189 187 190 175 160 142 15 349 304 298 271 255 250 241 244 243 235 224 212 213 220 218 211 209 203 190 178 195 193 176 199 221 203 196 215 245 246 235 167 169 175 202 248 230 180 217 279 234 214 224 231 227 227 327 10 14 337 337 36 358 294 300 302 160 124 62 61 60 65 70 75 84 90 89 89 93 94
199 196 195 192 193 201 203 201 200 197 195 190 186 182 171 147 93 50 37 35 314 256 223 209 205 218 216 204 191 177 180 223 209 199 196 196 196 186 175 188 177 211 214 191 191 223 246 245 222 181 184 166 185 245 229 162 162 276 247 208 205 202 204 185 101 60 108 254 290 59 89 268 311 315 204 144 95 73 66 60 67 75 82 88 89 92 94 94
199 195 196 194 191 198 203 201 201 196 191 191 189 180 172 144 108 89 61 15 292 209 149 168 180 182 183 171 170 163 155 199 181 190 189 189 199 196 196 211 174 210 195 137 185 239 221 231 206 192 193 176 199 248 222 161 144 239 242 159 146 151 169 159 116 134 218 249 317 4 162 263 291 278 256 141 115 86 78 72 70 79 84 89 94 97 98 97
203 200 199 197 196 202 206 206 203 198 193 191 188 177 160 141 130 116 88 16 271 143 122 156 147 159 165 157 167 165 139 150 143 184 185 183 193 190 213 224 177 200 202 134 205 258 196 165 201 185 184 205 218 235 193 160 154 239 215 132 126 140 148 130 107 130 275 7 307 292 154 268 262 266 299 117 134 144 136 126 100 98 99 98 99 99 99 100
209 205 203 202 205 210 210 209 203 199 196 187 179 170 154 148 135 97 92 189 250 92 123 157 143 162 152 146 175 185 138 142 120 177 176 182 196 185 224 224 180 201 250 159 213 261 278 197 195 157 164 211 213 234 184 168 186 217 158 103 66 70 87 85 102 112 31 5 250 240 184 209 267 281 304 77 167 191 161 131 117 115 114 112 109 107 105 103
215 208 208 213 221 223 217 210 202 197 195 185 179 169 155 151 124 103 187 210 290 95 133 148 167 167 135 119 181 224 170 184 115 145 162 182 194 189 156 194 147 157 290 346 257 264 290 308 202 163 191 193 156 102 100 165 164 127 105 58 28 27 45 50 67 88 60 275 245 226 194 179 276 286 222 198 232 178 151 140 143 130 125 124 120 117 112 108
222 219 222 228 230 225 214 204 197 193 188 181 176 165 149 134 101 164 206 196 49 144 135 146 181 151 137 127 167 198 163 206 149 138 145 149 167 171 108 138 64 72 355 327 293 301 318 281 259 231 198 148 114 86 35 38 81 99 89 62 39 339 7 26 357 46 119 256 264 228 180 155 218 266 277 309 320 143 146 155 158 145 137 133 127 122 116 110
224 225 224 219 213 206 197 191 187 184 180 174 170 162 139 107 216 201 220 13 33 199 165 175 189 166 161 140 176 193 161 197 187 149 144 139 154 187 176 174 173 43 335 261 269 331 307 243 261 303 211 167 123 91 12 7 40 83 95 86 72 324 349 354 305 349 214 253 264 167 140 150 226 248 344 349 347 48 127 142 149 148 145 139 130 124 118 113
209 204 198 187 177 174 174 175 175 173 171 165 163 153 117 158 214 204 217 232 206 219 158 143 150 145 144 137 220 197 160 200 190 170 161 132 146 231 250 204 170 174 272 213 261 334 303 297 295 355 270 203 157 145 200 268 104 138 143 127 125 137 184 269 263 272 266 269 270 165 147 278 261 286 353 346 347 76 124 137 146 145 142 138 132 126 120 115
177 170 168 163 157 157 159 160 162 161 161 160 154 129 124 193 224 219 223 233 253 271 31 84 105 113 120 164 228 180 159 227 175 157 152 118 130 252 265 234 183 157 163 165 200 193 224 304 249 182 250 197 176 175 166 147 148 176 156 136 147 156 179 234 229 221 258 280 290 256 194 224 217 294 336 19 55 97 123 137 143 141 140 137 133 130 124 116
167 166 166 161 157 159 159 162 163 156 159 161 143 119 179 194 210 211 228 242 257 249 238 76 93 101 261 274 265 196 186 234 151 135 149 156 176 201 212 217 186 154 133 163 234 186 184 257 257 255 303 160 178 197 131 112 129 206 125 116 174 185 173 220 219 183 187 285 291 237 214 212 161 99 10 69 76 92 118 132 138 141 145 144 141 137 129 118
175 178 181 178 179 182 181 179 172 167 170 162 134 208 205 192 179 190 216 215 196 146 144 8 77 117 270 295 285 246 188 204 147 142 191 202 203 213 213 222 186 174 171 168 207 203 177 261 284 331 359 107 144 195 118 121 194 168 120 175 218 180 133 128 268 212 96 266 268 199 215 290 85 56 40 75 79 87 113 132 143 151 155 154 152 144 135 124
189 193 195 192 192 196 196 191 180 180 181 164 167 220 203 209 206 203 252 229 181 120 140 218 200 180 222 248 244 237 179 185 183 157 204 235 228 212 210 241 192 191 199 183 209 214 170 264 289 117 160 342 43 84 57 49 120 128 171 217 209 146 83 96 242 328 16 256 273 288 242 246 213 239 23 104 132 158 169 163 160 166 171 170 163 151 143 130
192 198 204 202 198 194 191 190 185 185 185 178 216 228 209 217 211 208 232 244 48 55 115 206 219 187 193 207 237 228 172 182 196 167 187 228 235 189 163 187 202 223 215 170 182 254 129 265 294 117 170 300 5 74 47 6 59 126 193 219 118 148 257 86 169 232 254 254 279 290 266 240 203 198 187 183 185 183 186 184 184 191 190 183 173 161 153 137
206 209 218 214 204 193 186 185 181 180 188 203 215 222 210 214 216 217 228 238 176 105 192 220 224 217 188 189 203 202 179 186 186 175 173 197 225 183 123 149 167 351 178 153 167 273 100 201 285 313 210 303 21 76 190 273 354 73 46 335 61 149 179 179 174 174 212 255 273 278 280 270 234 197 182 193 189 175 175 182 202 206 196 189 182 173 166 156
220 215 227 216 202 194 185 179 178 180 196 214 198 205 202 213 228 224 227 233 221 207 223 216 214 230 227 208 206 193 188 187 176 177 198 195 216 227 125 138 150 135 67 121 137 27 67 161 254 298 323 37 155 203 189 190 179 115 121 257 271 106 136 226 234 131 158 223 250 266 271 263 253 198 187 195 179 164 174 180 201 210 201 196 199 194 194 191
211 200 229 205 191 187 177 169 179 191 207 227 200 203 214 226 241 227 226 228 228 229 224 204 208 219 221 226 227 196 183 193 180 185 213 210 215 226 184 140 154 164 94 69 97 136 121 164 211 273 322 185 227 239 183 172 163 148 172 196 186 161 124 243 259 189 152 209 209 240 268 267 266 264 212 185 156 163 181 183 196 211 205 206 224 219 210 207
195 195 218 196 186 181 171 162 192 201 208 228 216 213 216 225 231 218 222 224 227 235 235 225 216 213 214 218 215 186 176 200 202 197 213 217 208 200 165 144 174 171 134 126 197 186 125 113 165 253 227 210 243 267 167 162 143 133 174 184 160 151 136 184 238 226 188 249 217 224 266 269 276 291 196 153 158 170 181 186 195 211 214 218 227 221 210 208
188 191 194 191 186 177 170 170 210 198 230 233 215 220 216 214 215 208 208 210 213 220 225 231 211 211 226 212 189 192 191 201 205 198 211 218 196 200 181 164 178 104 111 140 215 153 98 98 174 273 289 297 315 335 4 45 99 134 268 164 149 178 158 174 217 187 158 240 229 241 256 226 266 318 97 145 163 170 181 190 200 223 231 226 224 217 209 205
170 161 168 182 181 175 177 208 198 202 229 216 209 235 220 222 222 204 199 204 207 196 194 228 220 214 228 188 168 203 208 210 217 202 204 202 173 152 22 168 188 156 123 183 186 165 170 133 123 247 301 309 329 348 351 356 81 169 260 255 161 130 110 103 152 109 158 220 204 222 250 234 201 36 65 127 158 173 196 204 213 241 246 230 219 211 205 201
149 144 165 179 179 181 196 230 179 200 216 206 231 230 211 241 229 207 204 210 211 196 187 233 215 191 196 165 160 214 216 222 236 213 153 146 313 4 22 344 212 168 135 181 158 151 173 186 137 160 236 255 258 236 236 259 221 185 258 256 213 146 137 130 115 160 213 217 196 218 244 251 189 128 44 220 170 185 219 229 238 253 255 239 220 205 197 196
153 156 171 175 183 197 220 235 208 186 185 192 230 220 201 225 233 207 206 214 221 211 206 236 188 166 187 166 166 218 228 227 221 171 127 154 254 325 12 16 146 136 119 128 136 128 123 191 187 188 222 241 229 212 216 165 143 235 265 246 238 221 168 135 133 186 206 224 244 237 225 235 262 243 222 224 210 211 237 250 254 258 259 245 220 201 191 190
163 184 177 163 185 209 226 229 219 219 170 180 199 198 198 207 222 212 205 211 219 211 215 240 181 185 206 170 169 219 220 209 203 181 151 154 193 315 7 39 82 118 119 115 116 101 100 226 230 198 225 239 177 179 210 146 165 226 249 254 255 248 170 145 187 208 169 194 252 245 205 198 247 250 224 201 211 231 255 266 272 275 264 233 203 187 184 185
175 195 181 172 173 206 213 213 209 207 206 198 199 139 192 195 197 207 204 208 214 206 210 237 203 197 194 169 174 209 195 195 220 201 163 142 144 111 1 5 30 89 99 80 62 93 119 225 240 164 228 251 118 147 189 161 187 224 229 240 251 248 187 165 214 217 187 213 255 257 195 200 244 260 250 214 219 238 259 271 274 267 231 198 184 181 185 187
190 206 184 181 187 218 206 200 193 199 211 214 220 238 206 189 198 211 198 186 219 211 203 218 219 197 186 174 179 200 194 188 214 222 172 154 171 159 140 299 263 199 92 72 44 87 117 211 227 122 256 284 11 219 216 180 209 245 241 238 243 247 212 196 227 231 214 231 257 265 261 256 257 260 263 269 269 262 257 251 227 197 182 178 178 181 184 187
194 201 181 186 203 221 200 191 180 196 212 211 223 232 207 201 211 214 189 179 201 218 202 212 217 195 191 191 189 205 203 177 188 213 181 164 192 192 187 211 181 135 76 92 65 13 99 165 111 88 9 302 305 260 229 207 216 250 261 255 249 244 233 230 237 238 231 242 251 255 264 268 265 258 261 275 272 239 199 184 174 171 172 174 175 177 182 191
193 188 162 171 194 176 180 184 178 189 209 208 216 217 204 217 213 189 249 219 195 200 200 199 197 176 182 199 202 217 214 186 185 201 182 173 183 178 182 187 158 140 144 163 173 15 105 170 62 78 87 283 297 206 242 332 346 284 271 264 255 246 240 240 236 219 216 230 241 241 243 256 264 263 254 244 216 186 172 163 159 162 168 174 180 186 196 205
198 198 176 155 182 183 172 167 171 191 207 205 211 216 214 220 202 186 231 269 182 196 229 187 172 141 132 201 218 227 212 177 149 131 132 130 113 102 107 140 150 148 158 158 144 79 130 145 140 116 162 266 273 196 215 23 4 283 266 250 242 244 240 239 244 235 215 201 203 221 230 241 254 258 250 222 199 188 176 166 163 168 176 186 198 206 213 211
Height
1555 1555 1555 1555 1555 1555 1556 1556 1556 1556 1556 1556 1557 1557 1557 1557 1557 1557 1557 1557 1557 1557 1557 1557 1557 1557 1557 1556 1556 1555 1555 1554 1553 1552 1550 1549 1549 1550 1551 1551 1552 1552 1552 1552 1551 1551 1551 1552 1552 1552 1552 1552 1553 1552 1553 1553 1554 1554 1557 1561 1561 1562 1559 1553 1552 1550 1550 1548 1546 1544 1543 1543 1542 1541 1539 1538 1536 1535 1534 1531 1531 1533 1531 1531 1531 1531 1530 1529
1554 1555 1555 1555 1555 1555 1555 1555 1555 1556 1556 1556 1556 1556 1556 1556 1556 1556 1556 1556 1556 1556 1556 1556 1556 1556 1556 1556 1555 1555 1554 1553 1552 1551 1549 1548 1549 1549 1550 1551 1551 1551 1551 1551 1551 1551 1551 1551 1551 1552 1552 1552 1552 1552 1553 1553 1553 1554 1558 1561 1559 1558 1553 1548 1548 1547 1547 1547 1545 1543 1542 1542 1541 1540 1539 1537 1535 1535 1534 1528 1527 1529 1528 1528 1530 1530 1529 1528
1554 1554 1554 1554 1554 1554 1554 1555 1555 1555 1555 1555 1555 1556 1556 1556 1556 1556 1556 1556 1556 1556 1556 1555 1555 1555 1555 1555 1554 1554 1553 1552 1551 1550 1549 1549 1549 1549 1550 1550 1550 1550 1550 1550 1550 1551 1551 1551 1551 1551 1551 1552 1552 1552 1553 1553 1553 1553 1556 1559 1556 1552 1549 1547 1546 1545 1545 1545 1543 1542 1541 1541 1540 1539 1538 1537 1535 1533 1532 1527 1525 1526 1525 1525 1527 1528 1528 1527
1553 1553 1553 1553 1553 1553 1554 1554 1554 1554 1554 1554 1555 1555 1555 1555 1555 1555 1555 1555 1555 1555 1555 1555 1555 1555 1554 1554 1554 1553 1552 1551 1549 1549 1549 1549 1549 1549 1549 1549 1549 1549 1549 1549 1550 1550 1550 1550 1551 1551 1551 1552 1552 1552 1552 1552 1552 1553 1554 1554 1551 1549 1548 1546 1544 1544 1544 1544 1542 1540 1540 1539 1538 1538 1537 1536 1536 1533 1528 1525 1525 1525 1524 1523 1524 1525 1526 1525
1552 1552 1552 1552 1552 1553 1553 1553 1553 1553 1554 1554 1554 1554 1554 1554 1554 1554 1554 1554 1554 1554 1554 1554 1554 1554 1553 1553 1553 1552 1553 1552 1549 1549 1549 1549 1549 1548 1548 1549 1549 1548 1548 1548 1549 1549 1549 1550 1550 1550 1551 1551 1551 1552 1551 1550 1551 1552 1550 1549 1547 1548 1547 1544 1544 1544 1543 1542 1541 1539 1539 1538 1537 1537 1536 1536 1536 1532 1526 1523 1524 1524 1523 1523 1522 1522 1522 1522
1550 1551 1551 1551 1551 1552 1552 1552 1552 1553 1553 1553 1553 1553 1553 1553 1553 1553 1553 1553 1553 1553 1553 1553 1552 1552 1552 1552 1552 1552 1553 1552 1549 1548 1549 1548 1548 1548 1548 1548 1548 1548 1547 1548 1548 1549 1549 1549 1549 1550 1550 1550 1551 1550 1549 1549 1550 1551 1549 1547 1546 1546 1545 1543 1543 1543 1542 1541 1539 1538 1537 1536 1536 1535 1534 1534 1531 1528 1525 1524 1523 1522 1522 1522 1521 1521 1520 1520
1549 1549 1550 1550 1550 1550 1551 1551 1551 1551 1552 1552 1552 1552 1552 1552 1552 1552 1552 1552 1552 1552 1551 1551 1551 1551 1551 1551 1551 1550 1550 1549 1548 1548 1548 1547 1547 1547 1547 1547 1547 1547 1547 1547 1547 1548 1548 1548 1549 1549 1550 1550 1550 1549 1548 1549 1549 1550 1548 1546 1545 1545 1544 1543 1542 1542 1541 1540 1537 1537 1536 1534 1535 1535 1533 1529 1525 1525 1524 1523 1523 1521 1520 1520 1520 1520 1519 1519
1548 1548 1548 1548 1549 1549 1549 1550 1550 1550 1550 1550 1551 1551 1551 1551 1551 1551 1551 1551 1550 1550 1550 1550 1550 1549 1550 1549 1549 1549 1548 1546 1546 1546 1546 1546 1546 1546 1546 1546 1546 1546 1547 1547 1547 1547 1547 1547 1548 1548 1549 1549 1548 1548 1548 1548 1548 1548 1547 1545 1544 1544 1543 1542 1541 1540 1538 1537 1535 1536 1533 1530 1533 1534 1531 1525 1521 1522 1523 1522 1522 1520 1519 1519 1518 1518 1519 1519
1546 1546 1547 1547 1547 1548 1548 1548 1549 1549 1549 1549 1549 1549 1549 1549 1549 1549 1549 1549 1549 1549 1548 1548 1548 1548 1548 1548 1548 1548 1545 1544 1545 1545 1545 1545 1545 1545 1545 1545 1546 1546 1546 1546 1546 1546 1546 1547 1547 1547 1548 1548 1547 1547 1547 1548 1547 1545 1545 1545 1543 1543 1541 1541 1539 1536 1536 1534 1534 1534 1530 1527 1530 1532 1528 1521 1519 1521 1520 1521 1521 1519 1518 1518 1518 1518 1518 1517
1545 1545 1545 1546 1546 1546 1547 1547 1547 1547 1547 1548 1548 1548 1548 1547 1548 1547 1547 1547 1547 1547 1547 1547 1547 1547 1546 1546 1547 1546 1543 1543 1544 1543 1544 1544 1544 1544 1544 1545 1545 1545 1545 1545 1545 1545 1546 1546 1546 1547 1547 1547 1546 1546 1546 1547 1546 1544 1544 1543 1542 1542 1539 1539 1537 1533 1533 1532 1531 1533 1529 1525 1528 1531 1525 1518 1518 1519 1518 1519 1519 1519 1518 1517 1518 1517 1517 1516
1543 1544 1544 1544 1545 1545 1545 1545 1546 1546 1546 1546 1546 1546 1546 1546 1546 1546 1546 1546 1545 1545 1545 1545 1545 1545 1545 1545 1545 1543 1541 1542 1542 1542 1543 1542 1543 1543 1543 1544 1544 1544 1544 1544 1544 1544 1545 1545 1546 1546 1546 1546 1546 1546 1545 1545 1545 1544 1543 1542 1540 1540 1538 1536 1534 1531 1532 1530 1528 1530 1528 1525 1527 1529 1522 1516 1518 1518 1517 1516 1517 1517 1517 1517 1517 1516 1515 1515
1542 1542 1543 1543 1543 1543 1544 1544 1544 1544 1544 1544 1544 1544 1544 1544 1544 1544 1544 1544 1544 1544 1543 1543 1543 1543 1543 1542 1541 1540 1540 1541 1541 1541 1541 1541 1541 1541 1542 1542 1542 1543 1543 1543 1543 1543 1544 1545 1545 1546 1545 1545 1545 1545 1545 1544 1544 1543 1543 1543 1540 1540 1538 1532 1531 1531 1531 1529 1526 1528 1529 1525 1524 1523 1517 1515 1517 1517 1516 1515 1515 1516 1516 1516 1516 1514 1514 1514
1540 1540 1541 1541 1541 1542 1542 1542 1542 1542 1542 1542 1542 1543 1543 1543 1543 1542 1542 1542 1542 1542 1542 1542 1542 1542 1542 1540 1538 1538 1539 1539 1539 1539 1539 1539 1540 1540 1540 1540 1541 1541 1541 1541 1542 1542 1543 1543 1544 1545 1545 1545 1545 1545 1544 1544 1544 1543 1543 1544 1542 1543 1539 1530 1529 1530 1529 1528 1525 1528 1533 1527 1520 1518 1515 1516 1517 1516 1515 1513 1514 1515 1515 1515 1514 1513 1513 1512
1538 1538 1539 1539 1540 1540 1540 1541 1541 1541 1541 1541 1541 1541 1541 1541 1541 1541 1541 1541 1541 1540 1540 1540 1540 1541 1540 1538 1536 1537 1537 1537 1537 1537 1538 1538 1538 1538 1538 1538 1539 1539 1540 1540 1541 1541 1542 1543 1544 1544 1544 1545 1544 1544 1545 1544 1544 1544 1544 1544 1546 1547 1539 1528 1528 1530 1528 1527 1524 1528 1535 1529 1519 1516 1515 1516 1516 1515 1513 1512 1513 1514 1513 1513 1512 1512 1511 1510
1536 1537 1537 1538 1538 1539 1539 1539 1539 1539 1539 1539 1539 1540 1539 1539 1539 1539 1539 1539 1539 1539 1539 1539 1539 1539 1538 1536 1535 1535 1535 1535 1535 1536 1536 1536 1536 1536 1536 1537 1537 1538 1539 1539 1539 1540 1541 1542 1543 1543 1544 1543 1543 1545 1546 1546 1545 1545 1546 1546 1548 1548 1540 1530 1527 1528 1527 1526 1525 1528 1532 1529 1521 1517 1515 1515 1515 1513 1512 1512 1513 1513 1512 1512 1512 1511 1510 1509
1534 1535 1535 1536 1536 1537 1537 1537 1537 1538 1538 1538 1538 1538 1538 1538 1538 1538 1538 1538 1538 1537 1537 1538 1537 1538 1537 1534 1533 1533 1533 1534 1534 1534 1535 1535 1535 1535 1535 1536 1536 1537 1537 1538 1539 1540 1541 1542 1542 1543 1543 1543 1544 1546 1549 1550 1548 1547 1548 1547 1546 1546 1544 1537 1528 1525 1526 1525 1526 1528 1529 1527 1522 1518 1515 1513 1512 1512 1511 1512 1513 1513 1512 1512 1511 1510 1509 1509
1532 1533 1533 1534 1535 1535 1535 1536 1536 1536 1536 1536 1536 1536 1537 1537 1536 1536 1536 1536 1536 1536 1536 1536 1536 1537 1535 1532 1532 1532 1532 1533 1533 1533 1533 1534 1534 1534 1535 1535 1535 1536 1537 1537 1538 1539 1540 1541 1542 1542 1542 1543 1544 1546 1552 1554 1550 1546 1548 1548 1545 1544 1544 1541 1531 1525 1525 1526 1526 1527 1527 1526 1521 1519 1516 1510 1509 1510 1510 1511 1512 1512 1512 1511 1510 1509 1509 1508
1530 1531 1532 1532 1533 1533 1534 1534 1534 1534 1534 1535 1535 1535 1535 1535 1535 1535 1535 1535 1535 1535 1535 1535 1535 1537 1533 1529 1529 1530 1531 1531 1531 1532 1532 1533 1533 1533 1534 1534 1535 1536 1536 1537 1538 1538 1540 1540 1542 1543 1543 1544 1544 1546 1551 1550 1544 1541 1544 1545 1545 1543 1543 1541 1535 1527 1525 1526 1527 1527 1526 1525 1521 1520 1516 1508 1507 1510 1510 1511 1511 1510 1511 1510 1510 1509 1509 1508
1529 1530 1530 1531 1531 1532 1532 1532 1533 1533 1533 1533 1534 1534 1534 1534 1534 1533 1533 1533 1533 1533 1533 1532 1532 1534 1530 1527 1528 1529 1529 1530 1530 1530 1531 1531 1532 1532 1533 1533 1534 1535 1536 1537 1537 1537 1539 1540 1543 1544 1543 1543 1542 1541 1541 1538 1536 1538 1539 1542 1542 1543 1541 1537 1533 1528 1525 1527 1527 1525 1525 1523 1520 1518 1513 1507 1507 1509 1509 1510 1510 1510 1510 1510 1510 1509 1509 1508
1527 1528 1529 1529 1530 1530 1531 1531 1531 1532 1532 1532 1532 1533 1533 1532 1533 1532 1531 1531 1530 1530 1530 1529 1529 1528 1527 1526 1527 1528 1528 1528 1529 1529 1529 1530 1531 1531 1532 1533 1534 1535 1535 1536 1537 1537 1538 1540 1543 1541 1538 1537 1536 1535 1534 1533 1536 1537 1539 1541 1542 1543 1540 1533 1530 1526 1525 1528 1526 1524 1524 1522 1519 1516 1510 1506 1507 1509 1508 1509 1510 1510 1511 1511 1511 1510 1510 1510
1526 1527 1527 1528 1529 1529 1530 1530 1530 1530 1531 1531 1531 1531 1531 1531 1531 1531 1530 1529 1528 1528 1527 1527 1527 1526 1525 1525 1525 1526 1526 1526 1527 1527 1528 1528 1529 1531 1531 1532 1534 1535 1535 1535 1536 1537 1537 1541 1540 1535 1531 1530 1531 1532 1534 1535 1536 1537 1539 1541 1541 1541 1537 1531 1528 1525 1525 1527 1525 1524 1524 1521 1517 1513 1508 1506 1508 1510 1508 1508 1511 1511 1512 1513 1512 1512 1512 1512
1524 1525 1526 1527 1527 1528 1529 1529 1529 1529 1529 1529 1530 1530 1530 1530 1530 1530 1530 1528 1526 1526 1525 1525 1524 1523 1522 1523 1523 1524 1525 1525 1525 1525 1526 1527 1528 1529 1530 1531 1533 1533 1534 1535 1537 1538 1540 1541 1535 1528 1528 1529 1531 1532 1534 1535 1535 1537 1539 1541 1541 1538 1535 1530 1526 1525 1525 1525 1523 1524 1524 1521 1516 1512 1511 1511 1512 1513 1511 1510 1513 1513 1513 1515 1515 1514 1513 1513
1523 1523 1525 1525 1526 1527 1527 1527 1528 1528 1528 1528 1528 1529 1529 1529 1529 1529 1529 1528 1525 1522 1522 1521 1520 1519 1519 1520 1520 1521 1522 1522 1522 1523 1524 1526 1526 1527 1528 1529 1531 1532 1533 1534 1535 1538 1540 1536 1528 1524 1527 1530 1530 1531 1533 1534 1535 1537 1538 1540 1539 1535 1535 1532 1526 1524 1524 1524 1524 1524 1524 1521 1514 1511 1514 1516 1515 1516 1515 1514 1515 1515 1515 1516 1516 1515 1514 1514
1521 1522 1523 1524 1525 1525 1526 1526 1526 1526 1527 1527 1528 1528 1528 1529 1528 1528 1528 1527 1524 1520 1517 1517 1516 1516 1516 1517 1517 1518 1519 1520 1520 1520 1521 1523 1524 1526 1526 1526 1529 1531 1531 1530 1531 1533 1532 1526 1522 1523 1527 1529 1530 1529 1531 1534 1536 1535 1534 1535 1534 1531 1532 1530 1527 1525 1524 1525 1525 1523 1523 1520 1513 1511 1516 1519 1518 1518 1518 1517 1517 1518 1518 1519 1517 1516 1515 1514
1519 1521 1522 1522 1524 1524 1524 1525 1524 1526 1526 1526 1527 1527 1527 1528 1527 1527 1527 1527 1525 1518 1514 1514 1514 1514 1514 1515 1516 1516 1517 1518 1518 1518 1519 1520 1522 1523 1524 1524 1527 1529 1528 1528 1530 1532 1527 1522 1522 1524 1526 1529 1530 1529 1529 1532 1536 1534 1529 1528 1528 1527 1527 1528 1529 1528 1527 1528 1527 1526 1529 1524 1514 1510 1516 1520 1520 1520 1520 1520 1520 1521 1521 1520 1519 1518 1517 1516
1517 1519 1520 1521 1522 1522 1523 1523 1523 1525 1524 1525 1526 1525 1527 1526 1526 1527 1526 1530 1527 1515 1512 1513 1512 1513 1513 1514 1515 1515 1518 1517 1516 1517 1518 1519 1520 1521 1523 1523 1523 1525 1526 1527 1530 1529 1523 1520 1520 1523 1524 1527 1530 1529 1527 1529 1534 1534 1526 1523 1524 1525 1526 1527 1529 1530 1531 1531 1528 1527 1532 1530 1520 1510 1511 1518 1520 1521 1523 1522 1522 1523 1522 1521 1521 1520 1520 1519
1515 1517 1518 1519 1520 1520 1521 1521 1522 1523 1523 1524 1524 1525 1526 1524 1526 1526 1527 1536 1528 1510 1508 1512 1511 1512 1512 1513 1514 1515 1518 1516 1515 1517 1517 1519 1520 1520 1522 1522 1522 1523 1522 1525 1528 1524 1519 1518 1520 1521 1523 1526 1529 1527 1524 1525 1530 1530 1524 1522 1523 1523 1525 1527 1528 1529 1531 1532 1530 1527 1528 1532 1528 1516 1511 1515 1519 1522 1524 1524 1524 1524 1524 1524 1523 1522 1521 1521
1514 1515 1516 1517 1518 1519 1519 1520 1521 1521 1522 1523 1522 1524 1524 1523 1526 1524 1530 1540 1524 1504 1507 1510 1510 1511 1511 1513 1514 1514 1515 1514 1515 1517 1517 1518 1520 1520 1521 1521 1522 1522 1521 1524 1526 1521 1517 1518 1518 1519 1522 1525 1524 1521 1520 1522 1524 1524 1522 1524 1524 1523 1525 1527 1528 1530 1533 1535 1532 1528 1529 1533 1527 1516 1514 1515 1515 1521 1525 1525 1525 1524 1524 1525 1524 1524 1523 1523
1511 1512 1514 1515 1516 1517 1518 1519 1519 1519 1521 1521 1521 1523 1522 1524 1525 1524 1534 1536 1513 1501 1508 1509 1509 1511 1511 1513 1514 1514 1514 1514 1515 1516 1516 1518 1519 1519 1521 1520 1521 1522 1521 1523 1523 1519 1517 1517 1516 1517 1520 1520 1518 1518 1519 1519 1520 1520 1523 1524 1524 1526 1528 1529 1530 1530 1534 1538 1532 1526 1527 1529 1522 1512 1514 1516 1512 1517 1524 1526 1526 1525 1525 1525 1525 1525 1524 1524
1509 1510 1511 1512 1513 1514 1515 1516 1517 1518 1519 1519 1521 1521 1521 1524 1524 1530 1540 1530 1508 1504 1508 1507 1509 1510 1510 1513 1514 1514 1514 1514 1514 1515 1516 1518 1518 1519 1520 1520 1520 1521 1522 1523 1521 1518 1517 1517 1517 1516 1515 1514 1515 1519 1520 1519 1519 1520 1522 1523 1523 1527 1529 1531 1534 1533 1536 1535 1525 1522 1522 1525 1524 1512 1509 1513 1510 1512 1521 1526 1527 1526 1526 1525 1525 1525 1525 1525
1506 1507 1509 1509 1510 1510 1511 1513 1515 1516 1517 1518 1519 1520 1521 1523 1525 1534 1535 1518 1506 1508 1506 1506 1510 1509 1510 1512 1512 1513 1514 1514 1514 1514 1516 1517 1518 1519 1520 1520 1521 1522 1524 1523 1521 1519 1518 1517 1516 1513 1512 1513 1515 1518 1520 1521 1520 1520 1522 1523 1525 1529 1529 1532 1535 1535 1537 1529 1519 1522 1525 1526 1526 1513 1507 1513 1513 1512 1516 1521 1524 1526 1526 1526 1526 1526 1526 1526
1503 1504 1505 1506 1507 1508 1509 1511 1513 1514 1515 1516 1518 1518 1520 1526 1529 1530 1522 1510 1508 1508 1503 1506 1508 1507 1510 1511 1511 1512 1513 1513 1514 1514 1515 1517 1518 1518 1518 1518 1519 1521 1524 1523 1521 1520 1517 1515 1515 1513 1511 1512 1513 1517 1522 1522 1521 1522 1523 1526 1532 1537 1537 1535 1535 1537 1536 1525 1520 1525 1526 1524 1521 1513 1513 1518 1516 1515 1516 1519 1522 1524 1525 1526 1526 1526 1526 1527
1500 1501 1502 1503 1504 1505 1508 1510 1512 1513 1513 1514 1517 1517 1520 1529 1529 1521 1513 1510 1508 1505 1502 1504 1505 1506 1509 1509 1509 1511 1512 1512 1512 1513 1514 1516 1518 1517 1516 1517 1517 1518 1520 1523 1523 1520 1515 1513 1513 1513 1511 1510 1511 1515 1519 1520 1521 1522 1522 1525 1533 1540 1544 1539 1536 1539 1534 1522 1522 1527 1525 1520 1513 1513 1522 1523 1519 1519 1517 1519 1522 1522 1524 1525 1525 1527 1527 1527
1498 1500 1501 1502 1503 1504 1506 1509 1510 1511 1512 1513 1515 1517 1523 1527 1522 1514 1511 1509 1505 1503 1503 1503 1505 1507 1508 1508 1508 1508 1509 1510 1511 1512 1514 1516 1518 1517 1514 1515 1516 1516 1517 1522 1522 1520 1519 1516 1511 1511 1510 1508 1509 1510 1512 1514 1519 1522 1521 1523 1526 1528 1532 1532 1527 1529 1526 1518 1521 1526 1522 1514 1508 1514 1525 1524 1521 1521 1519 1520 1522 1523 1525 1525 1525 1527 1526 1527
1497 1499 1501 1502 1503 1504 1506 1508 1509 1510 1512 1512 1514 1518 1522 1521 1517 1514 1512 1507 1504 1503 1503 1503 1505 1507 1508 1507 1506 1505 1505 1507 1510 1512 1514 1515 1516 1514 1511 1510 1512 1514 1517 1521 1520 1519 1521 1515 1508 1510 1510 1508 1509 1509 1510 1512 1517 1522 1523 1523 1524 1519 1518 1522 1523 1522 1523 1522 1522 1520 1516 1514 1516 1522 1527 1524 1523 1523 1522 1523 1523 1523 1525 1525 1525 1526 1526 1527
1495 1497 1499 1501 1503 1505 1506 1508 1509 1510 1511 1512 1515 1518 1517 1514 1512 1511 1507 1503 1503 1502 1503 1506 1506 1508 1510 1508 1506 1505 1503 1505 1509 1511 1513 1514 1513 1512 1509 1506 1507 1509 1511 1515 1515 1515 1518 1513 1509 1511 1510 1509 1511 1509 1510 1512 1513 1520 1524 1519 1519 1518 1514 1518 1523 1524 1526 1527 1520 1512 1511 1518 1522 1523 1525 1525 1525 1525 1525 1524 1524 1524 1525 1525 1525 1525 1525 1526
1494 1495 1498 1500 1503 1504 1506 1507 1508 1510 1511 1512 1516 1516 1512 1509 1507 1506 1503 1502 1502 1501 1504 1508 1507 1507 1509 1508 1505 1504 1503 1505 1508 1509 1511 1513 1510 1507 1506 1505 1506 1506 1505 1507 1509 1510 1513 1512 1509 1510 1510 1510 1511 1510 1510 1511 1512 1517 1520 1515 1515 1518 1517 1519 1525 1526 1529 1529 1520 1510 1510 1514 1514 1516 1525 1528 1525 1526 1526 1525 1524 1525 1524 1524 1524 1524 1525 1525
1493 1494 1497 1499 1501 1502 1504 1506 1507 1509 1511 1512 1514 1513 1509 1507 1504 1502 1502 1501 1502 1502 1505 1508 1506 1504 1506 1507 1505 1504 1504 1505 1507 1508 1509 1510 1506 1502 1502 1504 1506 1506 1505 1506 1507 1508 1511 1511 1510 1511 1512 1511 1511 1511 1512 1513 1512 1514 1515 1513 1515 1518 1517 1520 1526 1527 1528 1528 1520 1510 1508 1509 1507 1511 1521 1524 1522 1523 1524 1524 1524 1523 1523 1523 1523 1523 1524 1523
1492 1494 1496 1497 1499 1501 1502 1504 1506 1508 1511 1512 1513 1511 1506 1504 1501 1500 1501 1502 1502 1505 1506 1505 1504 1503 1504 1504 1503 1502 1503 1504 1505 1507 1506 1506 1504 1500 1501 1503 1505 1506 1505 1506 1507 1508 1510 1512 1512 1512 1513 1512 1511 1512 1513 1513 1514 1514 1514 1515 1516 1517 1516 1518 1522 1522 1522 1524 1521 1513 1508 1505 1503 1506 1511 1513 1516 1519 1521 1523 1523 1521 1521 1521 1521 1522 1522 1522
1492 1494 1495 1495 1497 1498 1500 1503 1505 1507 1509 1507 1507 1506 1503 1501 1500 1498 1500 1502 1502 1503 1504 1503 1503 1503 1502 1502 1501 1500 1501 1501 1503 1504 1503 1502 1501 1500 1500 1502 1503 1505 1505 1505 1507 1508 1510 1514 1514 1513 1514 1514 1511 1510 1509 1509 1511 1514 1515 1516 1516 1518 1519 1520 1521 1520 1519 1520 1521 1519 1512 1503 1503 1507 1507 1508 1513 1516 1518 1520 1520 1519 1520 1520 1520 1521 1521 1522
1492 1493 1493 1493 1495 1496 1498 1502 1504 1504 1504 1502 1501 1502 1500 1498 1497 1497 1499 1500 1500 1500 1500 1500 1501 1501 1500 1501 1501 1499 1500 1500 1500 1501 1501 1500 1499 1499 1500 1501 1502 1503 1504 1504 1506 1508 1510 1513 1513 1513 1514 1512 1509 1508 1507 1507 1509 1510 1512 1513 1513 1515 1519 1522 1522 1519 1518 1517 1515 1517 1513 1503 1503 1508 1507 1507 1512 1514 1516 1517 1517 1517 1518 1519 1519 1520 1521 1521
1490 1492 1491 1492 1494 1494 1497 1501 1501 1501 1501 1498 1497 1497 1497 1496 1495 1496 1497 1498 1499 1498 1498 1498 1498 1498 1498 1498 1499 1498 1498 1499 1499 1499 1499 1498 1497 1498 1499 1500 1501 1501 1502 1505 1507 1507 1509 1512 1513 1512 1511 1510 1509 1509 1509 1510 1509 1509 1510 1511 1512 1513 1514 1518 1519 1516 1517 1515 1511 1514 1515 1508 1506 1508 1506 1506 1509 1511 1513 1514 1514 1515 1516 1517 1518 1518 1520 1520
1487 1489 1490 1491 1492 1494 1497 1499 1500 1500 1497 1494 1493 1494 1494 1494 1494 1495 1495 1496 1497 1497 1498 1497 1496 1496 1496 1496 1497 1498 1498 1498 1498 1497 1497 1497 1497 1498 1499 1499 1500 1500 1501 1504 1506 1507 1508 1511 1513 1511 1509 1509 1510 1510 1510 1510 1510 1510 1510 1511 1513 1512 1511 1514 1515 1515 1518 1516 1511 1516 1517 1509 1507 1509 1507 1508 1508 1510 1512 1512 1513 1515 1514 1516 1517 1517 1518 1519
1485 1487 1489 1490 1491 1493 1494 1494 1494 1496 1494 1492 1493 1493 1493 1493 1492 1493 1494 1494 1494 1495 1495 1494 1493 1493 1494 1494 1495 1495 1497 1498 1497 1496 1497 1497 1498 1499 1499 1499 1499 1500 1500 1502 1504 1506 1508 1511 1515 1517 1516 1514 1513 1513 1513 1511 1511 1511 1511 1512 1513 1512 1513 1517 1517 1519 1523 1516 1511 1518 1516 1506 1507 1510 1510 1510 1510 1510 1512 1512 1513 1514 1514 1514 1515 1516 1517 1517
1483 1487 1488 1489 1490 1491 1490 1487 1487 1489 1490 1492 1493 1492 1492 1492 1490 1490 1492 1492 1492 1492 1492 1491 1490 1490 1491 1493 1494 1494 1494 1495 1496 1497 1498 1498 1500 1500 1500 1499 1499 1499 1500 1501 1501 1503 1507 1510 1512 1516 1520 1519 1515 1514 1515 1512 1511 1513 1513 1512 1513 1512 1513 1516 1517 1521 1522 1515 1513 1517 1512 1505 1508 1511 1511 1511 1511 1510 1511 1511 1512 1513 1513 1513 1513 1514 1515 1515
1480 1484 1487 1488 1489 1489 1487 1485 1486 1487 1488 1490 1492 1490 1490 1490 1488 1487 1489 1489 1489 1490 1490 1489 1489 1490 1491 1492 1493 1494 1494 1494 1495 1497 1498 1500 1502 1502 1501 1500 1500 1499 1500 1501 1501 1503 1507 1510 1508 1508 1511 1511 1509 1511 1514 1512 1511 1511 1511 1511 1511 1512 1513 1515 1518 1521 1519 1518 1518 1514 1509 1508 1509 1508 1510 1510 1510 1510 1510 1511 1511 1511 1511 1511 1511 1512 1513 1514
1476 1478 1479 1483 1486 1486 1485 1485 1486 1485 1485 1487 1487 1485 1485 1486 1486 1486 1486 1486 1486 1487 1488 1488 1488 1489 1490 1491 1493 1494 1493 1494 1495 1496 1498 1500 1502 1503 1502 1501 1501 1500 1500 1501 1501 1503 1507 1509 1508 1508 1507 1507 1509 1512 1513 1513 1511 1510 1510 1509 1507 1510 1513 1516 1518 1518 1516 1517 1515 1507 1507 1511 1507 1503 1506 1509 1510 1511 1510 1509 1509 1508 1508 1508 1509 1511 1512 1513
1473 1473 1472 1474 1477 1478 1479 1479 1479 1481 1483 1484 1483 1482 1482 1484 1485 1484 1484 1483 1484 1485 1486 1486 1485 1486 1487 1488 1491 1492 1493 1495 1496 1496 1497 1499 1501 1503 1503 1502 1502 1501 1501 1502 1501 1503 1506 1507 1508 1511 1510 1509 1512 1515 1513 1513 1514 1512 1511 1508 1505 1507 1512 1516 1516 1513 1512 1512 1507 1503 1507 1511 1505 1501 1505 1507 1508 1508 1507 1506 1505 1505 1505 1506 1508 1509 1511 1512
1470 1470 1470 1471 1471 1471 1471 1472 1474 1478 1481 1482 1482 1480 1480 1481 1482 1481 1481 1482 1483 1482 1483 1484 1483 1484 1485 1486 1488 1490 1491 1493 1495 1495 1496 1498 1500 1502 1503 1503 1503 1502 1502 1502 1502 1503 1506 1507 1510 1513 1510 1509 1514 1516 1514 1514 1515 1513 1511 1508 1506 1509 1513 1514 1512 1510 1511 1511 1507 1507 1511 1509 1503 1502 1503 1503 1504 1504 1503 1503 1503 1503 1504 1505 1507 1508 1509 1510
1468 1467 1467 1469 1469 1469 1470 1471 1474 1477 1478 1481 1481 1478 1478 1479 1479 1479 1479 1480 1481 1480 1480 1481 1481 1482 1484 1484 1484 1486 1486 1488 1491 1492 1494 1496 1498 1500 1501 1500 1500 1502 1503 1503 1504 1504 1505 1509 1513 1514 1512 1512 1516 1516 1514 1514 1514 1513 1510 1506 1507 1512 1513 1512 1511 1510 1513 1513 1509 1511 1514 1509 1500 1499 1501 1501 1501 1501 1501 1501 1501 1502 1503 1504 1506 1507 1508 1508
1465 1465 1465 1466 1468 1468 1469 1470 1472 1475 1476 1476 1476 1475 1476 1477 1477 1478 1478 1477 1478 1478 1478 1478 1479 1481 1483 1484 1483 1483 1483 1485 1487 1488 1490 1492 1493 1495 1496 1496 1497 1500 1502 1503 1504 1503 1504 1511 1514 1514 1514 1514 1517 1518 1515 1514 1516 1515 1508 1503 1505 1509 1508 1506 1506 1506 1507 1508 1509 1512 1514 1506 1497 1497 1500 1500 1499 1500 1500 1500 1501 1502 1502 1503 1504 1505 1506 1507
1464 1464 1464 1465 1466 1466 1467 1469 1471 1472 1470 1468 1470 1472 1473 1474 1475 1477 1478 1477 1476 1476 1477 1477 1478 1480 1483 1484 1483 1482 1483 1484 1486 1488 1490 1491 1492 1493 1494 1495 1496 1498 1500 1502 1504 1503 1505 1508 1511 1514 1515 1514 1518 1520 1515 1517 1522 1514 1499 1496 1499 1501 1501 1501 1501 1500 1500 1503 1507 1508 1504 1498 1496 1497 1499 1498 1498 1498 1498 1498 1499 1500 1501 1502 1503 1503 1504 1504